Time,TemperatureF,DewpointF,PressureIn,WindDirection,WindDirectionDegrees,WindSpeedMPH,WindSpeedGustMPH,Humidity,HourlyPrecipIn,Conditions,Clouds,dailyrainin,SoftwareType,DateUTC
2013-03-25 00:00:00,29.3,22.4,29.77,North,0,3.0,10.0,75,0.00,,---,0.00,VWS V14.00,2013-03-25 05:00:00,
2013-03-25 00:05:00,29.3,22.4,29.77,NNE,22,3.0,13.0,75,0.00,,---,0.00,VWS V14.00,2013-03-25 05:05:00,
2013-03-25 00:10:00,29.3,22.4,29.77,NNW,338,3.0,7.0,75,0.00,,---,0.00,VWS V14.00,2013-03-25 05:10:00,
2013-03-25 00:15:00,29.2,22.3,29.77,North,0,3.0,14.0,75,0.00,,---,0.00,VWS V14.00,2013-03-25 05:15:00,
2013-03-25 00:20:00,29.1,22.2,29.77,NE,45,2.0,7.0,75,0.00,,---,0.00,VWS V14.00,2013-03-25 05:20:00,
2013-03-25 00:25:00,29.0,22.1,29.77,ENE,68,1.0,3.0,75,0.00,,---,0.00,VWS V14.00,2013-03-25 05:25:00,
2013-03-25 00:30:00,28.9,22.0,29.77,NNE,22,3.0,9.0,75,0.00,,---,0.00,VWS V14.00,2013-03-25 05:30:00,
2013-03-25 00:35:00,28.8,21.9,29.77,NE,45,2.0,9.0,75,0.00,,---,0.00,VWS V14.00,2013-03-25 05:35:00,
2013-03-25 00:40:00,28.7,22.1,29.77,NE,45,1.0,6.0,76,0.00,,---,0.00,VWS V14.00,2013-03-25 05:40:00,
2013-03-25 00:45:00,28.6,21.4,29.77,NNE,22,3.0,8.0,74,0.00,,---,0.00,VWS V14.00,2013-03-25 05:45:00,
2013-03-25 00:50:00,28.6,21.1,29.78,NE,45,4.0,18.0,73,0.00,,---,0.00,VWS V14.00,2013-03-25 05:50:00,
2013-03-25 00:55:00,28.5,21.0,29.77,NE,45,3.0,9.0,73,0.00,,---,0.00,VWS V14.00,2013-03-25 05:55:00,
2013-03-25 01:00:00,28.4,20.9,29.77,North,0,2.0,9.0,73,0.00,,---,0.00,VWS V14.00,2013-03-25 06:00:00,
2013-03-25 01:05:00,28.2,20.7,29.77,NE,45,2.0,8.0,73,0.00,,---,0.00,VWS V14.00,2013-03-25 06:05:00,
2013-03-25 01:10:00,28.1,20.6,29.78,North,0,4.0,11.0,73,0.00,,---,0.00,VWS V14.00,2013-03-25 06:10:00,
2013-03-25 01:15:00,28.1,20.6,29.77,North,0,3.0,9.0,73,0.00,,---,0.00,VWS V14.00,2013-03-25 06:15:00,
2013-03-25 01:20:00,28.0,20.5,29.77,NNW,338,5.0,12.0,73,0.00,,---,0.00,VWS V14.00,2013-03-25 06:20:00,
2013-03-25 01:25:00,27.9,20.1,29.78,North,0,3.0,11.0,72,0.00,,---,0.00,VWS V14.00,2013-03-25 06:25:00,
2013-03-25 01:30:00,27.9,19.7,29.78,NNW,338,7.0,15.0,71,0.00,,---,0.00,VWS V14.00,2013-03-25 06:30:00,
2013-03-25 01:35:00,27.9,21.3,29.78,North,0,5.0,13.0,76,0.00,,---,0.00,VWS V14.00,2013-03-25 06:35:00,
2013-03-25 01:40:00,27.9,19.7,29.78,NNW,338,6.0,14.0,71,0.00,,---,0.00,VWS V14.00,2013-03-25 06:40:00,
2013-03-25 01:45:00,27.8,19.6,29.78,North,0,5.0,12.0,71,0.00,,---,0.00,VWS V14.00,2013-03-25 06:45:00,
2013-03-25 01:50:00,27.6,19.4,29.78,North,0,5.0,13.0,71,0.00,,---,0.00,VWS V14.00,2013-03-25 06:50:00,
2013-03-25 01:55:00,27.5,19.4,29.78,NNW,338,5.0,12.0,71,0.00,,---,0.00,VWS V14.00,2013-03-25 06:55:00,
2013-03-25 02:00:00,27.3,19.1,29.78,North,0,4.0,9.0,71,0.00,,---,0.00,VWS V14.00,2013-03-25 07:00:00,
2013-03-25 02:05:00,27.1,19.0,29.78,North,0,3.0,10.0,71,0.00,,---,0.00,VWS V14.00,2013-03-25 07:05:00,
2013-03-25 02:10:00,27.0,18.9,29.78,NNW,338,4.0,11.0,71,0.00,,---,0.00,VWS V14.00,2013-03-25 07:10:00,
2013-03-25 02:15:00,26.9,18.8,29.78,North,0,4.0,9.0,71,0.00,,---,0.00,VWS V14.00,2013-03-25 07:15:00,
2013-03-25 02:20:00,26.9,18.8,29.78,NNW,338,5.0,11.0,71,0.00,,---,0.00,VWS V14.00,2013-03-25 07:20:00,
2013-03-25 02:25:00,26.8,18.7,29.78,North,0,5.0,12.0,71,0.00,,---,0.00,VWS V14.00,2013-03-25 07:25:00,
2013-03-25 02:30:00,26.7,18.6,29.78,NNE,22,4.0,15.0,71,0.00,,---,0.00,VWS V14.00,2013-03-25 07:30:00,
2013-03-25 02:35:00,26.6,18.5,29.78,North,0,4.0,10.0,71,0.00,,---,0.00,VWS V14.00,2013-03-25 07:35:00,
2013-03-25 02:40:00,26.5,18.4,29.78,NNW,338,5.0,12.0,71,0.00,,---,0.00,VWS V14.00,2013-03-25 07:40:00,
2013-03-25 02:45:00,26.5,18.4,29.78,NNW,338,5.0,9.0,71,0.00,,---,0.00,VWS V14.00,2013-03-25 07:45:00,
2013-03-25 02:50:00,26.5,18.4,29.78,North,0,4.0,14.0,71,0.00,,---,0.00,VWS V14.00,2013-03-25 07:50:00,
2013-03-25 02:55:00,26.5,18.4,29.78,North,0,5.0,13.0,71,0.00,,---,0.00,VWS V14.00,2013-03-25 07:55:00,
2013-03-25 03:00:00,26.5,18.4,29.78,North,0,6.0,15.0,71,0.00,,---,0.00,VWS V14.00,2013-03-25 08:00:00,
2013-03-25 03:05:00,26.5,18.7,29.78,NNW,338,4.0,9.0,72,0.00,,---,0.00,VWS V14.00,2013-03-25 08:05:00,
2013-03-25 03:10:00,26.4,18.6,29.78,North,0,4.0,17.0,72,0.00,,---,0.00,VWS V14.00,2013-03-25 08:10:00,
2013-03-25 03:15:00,26.4,18.6,29.78,North,0,6.0,17.0,72,0.00,,---,0.00,VWS V14.00,2013-03-25 08:15:00,
2013-03-25 03:20:00,26.4,18.6,29.78,North,0,4.0,12.0,72,0.00,,---,0.00,VWS V14.00,2013-03-25 08:20:00,
2013-03-25 03:25:00,26.3,18.5,29.78,North,0,3.0,7.0,72,0.00,,---,0.00,VWS V14.00,2013-03-25 08:25:00,
2013-03-25 03:30:00,26.4,18.9,29.77,NNW,338,5.0,14.0,73,0.00,,---,0.00,VWS V14.00,2013-03-25 08:30:00,
2013-03-25 03:35:00,26.4,18.9,29.77,North,0,4.0,10.0,73,0.00,,---,0.00,VWS V14.00,2013-03-25 08:35:00,
2013-03-25 03:40:00,26.4,18.9,29.77,North,0,6.0,13.0,73,0.00,,---,0.00,VWS V14.00,2013-03-25 08:40:00,
2013-03-25 03:45:00,26.4,18.9,29.77,NNE,22,4.0,9.0,73,0.00,,---,0.00,VWS V14.00,2013-03-25 08:45:00,
2013-03-25 03:50:00,26.3,18.8,29.77,North,0,4.0,9.0,73,0.00,,---,0.00,VWS V14.00,2013-03-25 08:50:00,
2013-03-25 03:55:00,26.3,18.8,29.77,NNE,22,3.0,9.0,73,0.00,,---,0.00,VWS V14.00,2013-03-25 08:55:00,
2013-03-25 04:00:00,26.2,18.7,29.77,North,0,4.0,7.0,73,0.00,,---,0.00,VWS V14.00,2013-03-25 09:00:00,
2013-03-25 04:05:00,26.3,18.8,29.77,North,0,3.0,12.0,73,0.00,,---,0.00,VWS V14.00,2013-03-25 09:05:00,
2013-03-25 04:10:00,26.2,18.7,29.77,North,0,5.0,11.0,73,0.00,,---,0.00,VWS V14.00,2013-03-25 09:10:00,
2013-03-25 04:15:00,26.3,18.8,29.77,NNE,22,6.0,14.0,73,0.00,,---,0.00,VWS V14.00,2013-03-25 09:15:00,
2013-03-25 04:20:00,26.3,18.8,29.77,North,0,4.0,12.0,73,0.00,,---,0.00,VWS V14.00,2013-03-25 09:20:00,
2013-03-25 04:25:00,26.3,18.8,29.77,North,0,5.0,9.0,73,0.00,,---,0.00,VWS V14.00,2013-03-25 09:25:00,
2013-03-25 04:30:00,26.3,18.8,29.77,NNW,338,5.0,10.0,73,0.00,,---,0.00,VWS V14.00,2013-03-25 09:30:00,
2013-03-25 04:35:00,26.3,19.1,29.77,North,0,5.0,13.0,74,0.00,,---,0.00,VWS V14.00,2013-03-25 09:35:00,
2013-03-25 04:40:00,26.2,19.4,29.77,NNW,338,3.0,10.0,75,0.00,,---,0.00,VWS V14.00,2013-03-25 09:40:00,
2013-03-25 04:45:00,26.1,19.3,29.77,North,0,5.0,11.0,75,0.00,,---,0.00,VWS V14.00,2013-03-25 09:45:00,
2013-03-25 04:50:00,26.1,19.3,29.77,North,0,5.0,11.0,75,0.00,,---,0.00,VWS V14.00,2013-03-25 09:50:00,
2013-03-25 04:55:00,26.0,19.5,29.77,NNW,338,3.0,8.0,76,0.00,,---,0.00,VWS V14.00,2013-03-25 09:55:00,
2013-03-25 05:00:00,26.0,19.5,29.77,NNW,338,4.0,7.0,76,0.00,,---,0.00,VWS V14.00,2013-03-25 10:00:00,
2013-03-25 05:05:00,25.9,19.4,29.78,NNE,22,4.0,10.0,76,0.00,,---,0.00,VWS V14.00,2013-03-25 10:05:00,
2013-03-25 05:10:00,25.8,19.6,29.78,NNE,22,3.0,9.0,77,0.00,,---,0.00,VWS V14.00,2013-03-25 10:10:00,
2013-03-25 05:15:00,25.8,19.6,29.78,NNW,338,4.0,11.0,77,0.00,,---,0.00,VWS V14.00,2013-03-25 10:15:00,
2013-03-25 05:20:00,25.7,19.5,29.78,NNW,338,4.0,9.0,77,0.00,,---,0.00,VWS V14.00,2013-03-25 10:20:00,
2013-03-25 05:25:00,25.7,19.8,29.78,NNW,338,3.0,13.0,78,0.00,,---,0.00,VWS V14.00,2013-03-25 10:25:00,
2013-03-25 05:30:00,25.6,19.7,29.78,North,0,4.0,10.0,78,0.00,,---,0.00,VWS V14.00,2013-03-25 10:30:00,
2013-03-25 05:35:00,25.6,19.7,29.78,North,0,5.0,11.0,78,0.00,,---,0.00,VWS V14.00,2013-03-25 10:35:00,
2013-03-25 05:40:00,25.6,19.7,29.78,NNW,338,5.0,14.0,78,0.00,,---,0.00,VWS V14.00,2013-03-25 10:40:00,
2013-03-25 05:45:00,25.6,19.7,29.79,North,0,4.0,7.0,78,0.00,,---,0.00,VWS V14.00,2013-03-25 10:45:00,
2013-03-25 05:50:00,25.6,19.7,29.79,North,0,4.0,9.0,78,0.00,,---,0.00,VWS V14.00,2013-03-25 10:50:00,
2013-03-25 05:55:00,25.6,19.7,29.79,North,0,4.0,11.0,78,0.00,,---,0.00,VWS V14.00,2013-03-25 10:55:00,
2013-03-25 06:00:00,25.5,19.6,29.79,North,0,5.0,13.0,78,0.00,,---,0.00,VWS V14.00,2013-03-25 11:00:00,
2013-03-25 06:05:00,25.5,19.6,29.79,NNW,338,6.0,13.0,78,0.00,,---,0.00,VWS V14.00,2013-03-25 11:05:00,
2013-03-25 06:10:00,25.5,19.6,29.79,North,0,4.0,12.0,78,0.00,,---,0.00,VWS V14.00,2013-03-25 11:10:00,
2013-03-25 06:15:00,25.5,19.9,29.79,North,0,5.0,11.0,79,0.00,,---,0.00,VWS V14.00,2013-03-25 11:15:00,
2013-03-25 06:20:00,25.5,19.9,29.79,North,0,4.0,13.0,79,0.00,,---,0.00,VWS V14.00,2013-03-25 11:20:00,
2013-03-25 06:25:00,25.4,19.8,29.80,North,0,4.0,12.0,79,0.00,,---,0.00,VWS V14.00,2013-03-25 11:25:00,
2013-03-25 06:30:00,25.3,19.7,29.80,North,0,5.0,12.0,79,0.00,,---,0.00,VWS V14.00,2013-03-25 11:30:00,
2013-03-25 06:35:00,25.2,19.6,29.80,North,0,4.0,10.0,79,0.00,,---,0.00,VWS V14.00,2013-03-25 11:35:00,
2013-03-25 06:40:00,25.1,19.5,29.80,NNW,338,4.0,9.0,79,0.00,,---,0.00,VWS V14.00,2013-03-25 11:40:00,
2013-03-25 06:45:00,25.0,19.7,29.80,North,0,5.0,12.0,80,0.00,,---,0.00,VWS V14.00,2013-03-25 11:45:00,
2013-03-25 06:50:00,25.0,19.7,29.80,NNE,22,4.0,10.0,80,0.00,,---,0.00,VWS V14.00,2013-03-25 11:50:00,
2013-03-25 06:55:00,24.9,19.6,29.80,NNW,338,4.0,10.0,80,0.00,,---,0.00,VWS V14.00,2013-03-25 11:55:00,
2013-03-25 07:00:00,25.0,19.7,29.80,NNE,22,3.0,10.0,80,0.00,,---,0.00,VWS V14.00,2013-03-25 12:00:00,
2013-03-25 07:05:00,25.0,20.0,29.81,NNE,22,3.0,10.0,81,0.00,,---,0.00,VWS V14.00,2013-03-25 12:05:00,
2013-03-25 07:10:00,25.0,20.0,29.81,NNE,22,5.0,14.0,81,0.00,,---,0.00,VWS V14.00,2013-03-25 12:10:00,
2013-03-25 07:15:00,25.1,20.1,29.81,North,0,4.0,12.0,81,0.00,,---,0.00,VWS V14.00,2013-03-25 12:15:00,
2013-03-25 07:20:00,25.1,20.1,29.81,North,0,3.0,9.0,81,0.00,,---,0.00,VWS V14.00,2013-03-25 12:20:00,
2013-03-25 07:25:00,25.2,20.2,29.81,North,0,5.0,10.0,81,0.00,,---,0.00,VWS V14.00,2013-03-25 12:25:00,
2013-03-25 07:30:00,25.3,20.3,29.81,North,0,5.0,13.0,81,0.00,,---,0.00,VWS V14.00,2013-03-25 12:30:00,
2013-03-25 07:35:00,25.5,20.5,29.81,NNW,338,5.0,11.0,81,0.00,,---,0.00,VWS V14.00,2013-03-25 12:35:00,
2013-03-25 07:40:00,25.6,20.6,29.82,North,0,6.0,11.0,81,0.00,,---,0.00,VWS V14.00,2013-03-25 12:40:00,
2013-03-25 07:45:00,25.7,20.7,29.82,North,0,6.0,14.0,81,0.00,,---,0.00,VWS V14.00,2013-03-25 12:45:00,
2013-03-25 07:50:00,25.8,20.8,29.82,North,0,5.0,10.0,81,0.00,,---,0.00,VWS V14.00,2013-03-25 12:50:00,
2013-03-25 07:55:00,25.9,20.6,29.82,North,0,4.0,8.0,80,0.00,,---,0.00,VWS V14.00,2013-03-25 12:55:00,
2013-03-25 08:00:00,26.0,20.7,29.82,North,0,5.0,13.0,80,0.00,,---,0.00,VWS V14.00,2013-03-25 13:00:00,
2013-03-25 08:05:00,26.0,20.7,29.83,North,0,5.0,10.0,80,0.00,,---,0.00,VWS V14.00,2013-03-25 13:05:00,
2013-03-25 08:10:00,26.1,21.1,29.83,North,0,6.0,15.0,81,0.00,,---,0.00,VWS V14.00,2013-03-25 13:10:00,
2013-03-25 08:15:00,26.0,20.7,29.83,North,0,7.0,15.0,80,0.00,,---,0.00,VWS V14.00,2013-03-25 13:15:00,
2013-03-25 08:20:00,26.1,21.1,29.83,NNE,22,5.0,15.0,81,0.00,,---,0.00,VWS V14.00,2013-03-25 13:20:00,
2013-03-25 08:25:00,26.2,21.2,29.83,NNE,22,4.0,10.0,81,0.00,,---,0.00,VWS V14.00,2013-03-25 13:25:00,
2013-03-25 08:30:00,26.2,21.2,29.83,North,0,4.0,8.0,81,0.00,,---,0.00,VWS V14.00,2013-03-25 13:30:00,
2013-03-25 08:35:00,26.4,21.1,29.83,NNW,338,6.0,13.0,80,0.00,,---,0.00,VWS V14.00,2013-03-25 13:35:00,
2013-03-25 08:40:00,26.4,21.1,29.84,North,0,7.0,14.0,80,0.00,,---,0.00,VWS V14.00,2013-03-25 13:40:00,
2013-03-25 08:45:00,26.6,21.6,29.84,North,0,5.0,12.0,81,0.00,,---,0.00,VWS V14.00,2013-03-25 13:45:00,
2013-03-25 08:50:00,26.8,21.5,29.84,NNW,338,6.0,12.0,80,0.00,,---,0.00,VWS V14.00,2013-03-25 13:50:00,
2013-03-25 08:55:00,26.9,21.6,29.84,North,0,5.0,11.0,80,0.00,,---,0.00,VWS V14.00,2013-03-25 13:55:00,
2013-03-25 09:00:00,26.9,21.9,29.84,NNW,338,7.0,15.0,81,0.00,,---,0.00,VWS V14.00,2013-03-25 14:00:00,
2013-03-25 09:05:00,26.9,21.6,29.84,North,0,7.0,15.0,80,0.00,,---,0.00,VWS V14.00,2013-03-25 14:05:00,
2013-03-25 09:10:00,27.0,21.7,29.84,North,0,7.0,16.0,80,0.00,,---,0.00,VWS V14.00,2013-03-25 14:10:00,
2013-03-25 09:15:00,27.2,21.9,29.84,North,0,7.0,12.0,80,0.00,,---,0.00,VWS V14.00,2013-03-25 14:15:00,
2013-03-25 09:20:00,27.6,22.5,29.84,North,0,7.0,14.0,81,0.00,,---,0.00,VWS V14.00,2013-03-25 14:20:00,
2013-03-25 09:25:00,27.9,22.2,29.85,NNW,338,7.0,14.0,79,0.00,,---,0.00,VWS V14.00,2013-03-25 14:25:00,
2013-03-25 09:30:00,27.9,22.2,29.85,North,0,7.0,14.0,79,0.00,,---,0.00,VWS V14.00,2013-03-25 14:30:00,
2013-03-25 09:35:00,28.4,22.7,29.85,North,0,5.0,14.0,79,0.00,,---,0.00,VWS V14.00,2013-03-25 14:35:00,
2013-03-25 09:40:00,28.7,22.4,29.85,North,0,5.0,12.0,77,0.00,,---,0.00,VWS V14.00,2013-03-25 14:40:00,
2013-03-25 09:45:00,29.1,22.8,29.85,NNW,338,6.0,14.0,77,0.00,,---,0.00,VWS V14.00,2013-03-25 14:45:00,
2013-03-25 09:50:00,28.9,22.6,29.85,North,0,6.0,12.0,77,0.00,,---,0.00,VWS V14.00,2013-03-25 14:50:00,
2013-03-25 09:55:00,28.9,22.6,29.86,NNW,338,7.0,12.0,77,0.00,,---,0.00,VWS V14.00,2013-03-25 14:55:00,
2013-03-25 10:00:00,28.8,22.8,29.86,NNW,338,8.0,14.0,78,0.00,,---,0.00,VWS V14.00,2013-03-25 15:00:00,
2013-03-25 10:05:00,29.0,23.0,29.86,North,0,6.0,11.0,78,0.00,,---,0.00,VWS V14.00,2013-03-25 15:05:00,
2013-03-25 10:10:00,29.5,23.2,29.86,NNW,338,5.0,11.0,77,0.00,,---,0.00,VWS V14.00,2013-03-25 15:10:00,
2013-03-25 10:15:00,29.8,23.5,29.86,North,0,6.0,12.0,77,0.00,,---,0.00,VWS V14.00,2013-03-25 15:15:00,
2013-03-25 10:20:00,30.2,23.9,29.86,North,0,5.0,9.0,77,0.00,,---,0.00,VWS V14.00,2013-03-25 15:20:00,
2013-03-25 10:25:00,30.3,23.7,29.87,NNW,338,5.0,13.0,76,0.00,,---,0.00,VWS V14.00,2013-03-25 15:25:00,
2013-03-25 10:30:00,30.7,24.0,29.87,North,0,4.0,8.0,76,0.00,,---,0.00,VWS V14.00,2013-03-25 15:30:00,
2013-03-25 10:35:00,30.7,23.7,29.87,NNW,338,7.0,14.0,75,0.00,,---,0.00,VWS V14.00,2013-03-25 15:35:00,
2013-03-25 10:40:00,30.9,23.6,29.87,North,0,6.0,12.0,74,0.00,,---,0.00,VWS V14.00,2013-03-25 15:40:00,
2013-03-25 10:45:00,30.8,23.5,29.87,North,0,7.0,13.0,74,0.00,,---,0.00,VWS V14.00,2013-03-25 15:45:00,
2013-03-25 10:50:00,31.4,24.1,29.88,NNW,338,5.0,12.0,74,0.00,,---,0.00,VWS V14.00,2013-03-25 15:50:00,
2013-03-25 10:55:00,31.4,24.1,29.88,North,0,6.0,11.0,74,0.00,,---,0.00,VWS V14.00,2013-03-25 15:55:00,
2013-03-25 11:00:00,31.8,24.1,29.88,NNW,338,5.0,14.0,73,0.00,,---,0.00,VWS V14.00,2013-03-25 16:00:00,
2013-03-25 11:05:00,32.0,24.0,29.88,North,0,6.0,11.0,72,0.00,,---,0.00,VWS V14.00,2013-03-25 16:05:00,
2013-03-25 11:10:00,31.6,23.6,29.88,North,0,6.0,15.0,72,0.00,,---,0.00,VWS V14.00,2013-03-25 16:10:00,
2013-03-25 11:15:00,31.8,23.8,29.89,North,0,6.0,12.0,72,0.00,,---,0.00,VWS V14.00,2013-03-25 16:15:00,
2013-03-25 11:20:00,32.2,24.2,29.89,North,0,6.0,14.0,72,0.00,,---,0.00,VWS V14.00,2013-03-25 16:20:00,
2013-03-25 11:25:00,32.7,24.4,29.88,North,0,4.0,10.0,71,0.00,,---,0.00,VWS V14.00,2013-03-25 16:25:00,
2013-03-25 11:30:00,32.8,24.5,29.88,NNW,338,3.0,10.0,71,0.00,,---,0.00,VWS V14.00,2013-03-25 16:30:00,
2013-03-25 11:35:00,33.0,24.3,29.89,North,0,5.0,12.0,70,0.00,,---,0.00,VWS V14.00,2013-03-25 16:35:00,
2013-03-25 11:40:00,32.9,24.2,29.89,North,0,5.0,9.0,70,0.00,,---,0.00,VWS V14.00,2013-03-25 16:40:00,
2013-03-25 11:45:00,32.3,23.6,29.89,NNW,338,5.0,13.0,70,0.00,,---,0.00,VWS V14.00,2013-03-25 16:45:00,
2013-03-25 11:50:00,32.3,24.0,29.89,NW,315,5.0,10.0,71,0.00,,---,0.00,VWS V14.00,2013-03-25 16:50:00,
2013-03-25 11:55:00,32.2,23.5,29.89,North,0,6.0,11.0,70,0.00,,---,0.00,VWS V14.00,2013-03-25 16:55:00,
2013-03-25 12:00:00,32.1,23.4,29.89,NNW,338,4.0,10.0,70,0.00,,---,0.00,VWS V14.00,2013-03-25 17:00:00,
2013-03-25 12:05:00,32.3,23.6,29.89,North,0,5.0,10.0,70,0.00,,---,0.00,VWS V14.00,2013-03-25 17:05:00,
2013-03-25 12:10:00,32.5,24.2,29.89,NNW,338,5.0,14.0,71,0.00,,---,0.00,VWS V14.00,2013-03-25 17:10:00,
2013-03-25 12:15:00,32.5,23.5,29.89,NNW,338,5.0,11.0,69,0.00,,---,0.00,VWS V14.00,2013-03-25 17:15:00,
2013-03-25 12:20:00,32.4,23.7,29.89,North,0,4.0,10.0,70,0.00,,---,0.00,VWS V14.00,2013-03-25 17:20:00,
2013-03-25 12:25:00,32.6,23.9,29.89,NNW,338,4.0,9.0,70,0.00,,---,0.00,VWS V14.00,2013-03-25 17:25:00,
2013-03-25 12:30:00,32.9,23.9,29.89,NNW,338,6.0,14.0,69,0.00,,---,0.00,VWS V14.00,2013-03-25 17:30:00,
2013-03-25 12:35:00,33.0,24.0,29.89,NNW,338,6.0,13.0,69,0.00,,---,0.00,VWS V14.00,2013-03-25 17:35:00,
2013-03-25 12:40:00,32.9,23.9,29.89,North,0,6.0,12.0,69,0.00,,---,0.00,VWS V14.00,2013-03-25 17:40:00,
2013-03-25 12:45:00,33.0,23.6,29.89,North,0,8.0,14.0,68,0.00,,---,0.00,VWS V14.00,2013-03-25 17:45:00,
2013-03-25 12:50:00,33.0,23.6,29.90,North,0,6.0,12.0,68,0.00,,---,0.00,VWS V14.00,2013-03-25 17:50:00,
2013-03-25 12:55:00,32.9,23.5,29.89,North,0,6.0,16.0,68,0.00,,---,0.00,VWS V14.00,2013-03-25 17:55:00,
2013-03-25 13:00:00,32.7,23.7,29.89,NNW,338,5.0,14.0,69,0.00,,---,0.00,VWS V14.00,2013-03-25 18:00:00,
2013-03-25 13:05:00,32.7,23.7,29.89,NNW,338,4.0,11.0,69,0.00,,---,0.00,VWS V14.00,2013-03-25 18:05:00,
2013-03-25 13:10:00,32.7,23.7,29.89,North,0,5.0,11.0,69,0.00,,---,0.00,VWS V14.00,2013-03-25 18:10:00,
2013-03-25 13:15:00,32.8,23.8,29.89,North,0,4.0,10.0,69,0.00,,---,0.00,VWS V14.00,2013-03-25 18:15:00,
2013-03-25 13:20:00,32.9,23.5,29.90,North,0,6.0,11.0,68,0.00,,---,0.00,VWS V14.00,2013-03-25 18:20:00,
2013-03-25 13:25:00,33.2,24.1,29.89,North,0,3.0,9.0,69,0.00,,---,0.00,VWS V14.00,2013-03-25 18:25:00,
2013-03-25 13:30:00,33.2,23.8,29.89,NNW,338,5.0,10.0,68,0.00,,---,0.00,VWS V14.00,2013-03-25 18:30:00,
2013-03-25 13:35:00,33.2,23.1,29.90,NNW,338,5.0,12.0,66,0.00,,---,0.00,VWS V14.00,2013-03-25 18:35:00,
2013-03-25 13:40:00,33.2,23.1,29.89,North,0,3.0,9.0,66,0.00,,---,0.00,VWS V14.00,2013-03-25 18:40:00,
2013-03-25 13:45:00,33.0,22.9,29.90,North,0,9.0,16.0,66,0.00,,---,0.00,VWS V14.00,2013-03-25 18:45:00,
2013-03-25 13:50:00,32.9,23.2,29.90,North,0,7.0,16.0,67,0.00,,---,0.00,VWS V14.00,2013-03-25 18:50:00,
2013-03-25 13:55:00,32.7,23.3,29.90,NNE,22,5.0,13.0,68,0.00,,---,0.00,VWS V14.00,2013-03-25 18:55:00,
2013-03-25 14:00:00,32.8,23.4,29.90,North,0,4.0,12.0,68,0.00,,---,0.00,VWS V14.00,2013-03-25 19:00:00,
2013-03-25 14:05:00,32.7,23.3,29.90,NNE,22,3.0,10.0,68,0.00,,---,0.00,VWS V14.00,2013-03-25 19:05:00,
2013-03-25 14:10:00,32.7,23.7,29.90,North,0,5.0,13.0,69,0.00,,---,0.00,VWS V14.00,2013-03-25 19:10:00,
2013-03-25 14:15:00,32.7,23.3,29.90,North,0,5.0,14.0,68,0.00,,---,0.00,VWS V14.00,2013-03-25 19:15:00,
2013-03-25 14:20:00,32.6,23.2,29.90,North,0,8.0,14.0,68,0.00,,---,0.00,VWS V14.00,2013-03-25 19:20:00,
2013-03-25 14:25:00,32.6,23.6,29.90,North,0,4.0,13.0,69,0.00,,---,0.00,VWS V14.00,2013-03-25 19:25:00,
2013-03-25 14:30:00,32.7,23.7,29.90,NNW,338,6.0,10.0,69,0.00,,---,0.00,VWS V14.00,2013-03-25 19:30:00,
2013-03-25 14:35:00,32.7,23.7,29.90,North,0,3.0,9.0,69,0.00,,---,0.00,VWS V14.00,2013-03-25 19:35:00,
2013-03-25 14:40:00,32.7,23.7,29.91,North,0,3.0,8.0,69,0.00,,---,0.00,VWS V14.00,2013-03-25 19:40:00,
2013-03-25 14:45:00,32.5,23.1,29.91,North,0,7.0,14.0,68,0.00,,---,0.00,VWS V14.00,2013-03-25 19:45:00,
2013-03-25 14:50:00,32.3,23.3,29.91,North,0,9.0,14.0,69,0.00,,---,0.00,VWS V14.00,2013-03-25 19:50:00,
2013-03-25 14:55:00,32.2,23.2,29.91,North,0,8.0,16.0,69,0.00,,---,0.00,VWS V14.00,2013-03-25 19:55:00,
2013-03-25 15:00:00,32.3,23.6,29.91,North,0,7.0,18.0,70,0.00,,---,0.00,VWS V14.00,2013-03-25 20:00:00,
2013-03-25 15:05:00,32.3,23.6,29.91,North,0,4.0,11.0,70,0.00,,---,0.00,VWS V14.00,2013-03-25 20:05:00,
2013-03-25 15:10:00,32.5,23.5,29.91,North,0,6.0,16.0,69,0.00,,---,0.00,VWS V14.00,2013-03-25 20:10:00,
2013-03-25 15:15:00,32.7,23.0,29.91,North,0,6.0,13.0,67,0.00,,---,0.00,VWS V14.00,2013-03-25 20:15:00,
2013-03-25 15:20:00,33.0,23.2,29.91,North,0,4.0,11.0,67,0.00,,---,0.00,VWS V14.00,2013-03-25 20:20:00,
2013-03-25 15:25:00,32.9,23.2,29.92,North,0,6.0,12.0,67,0.00,,---,0.00,VWS V14.00,2013-03-25 20:25:00,
2013-03-25 15:30:00,32.9,23.2,29.92,North,0,6.0,14.0,67,0.00,,---,0.00,VWS V14.00,2013-03-25 20:30:00,
2013-03-25 15:35:00,33.0,23.6,29.92,NW,315,5.0,9.0,68,0.00,,---,0.00,VWS V14.00,2013-03-25 20:35:00,
2013-03-25 15:40:00,33.0,23.6,29.92,NNW,338,5.0,11.0,68,0.00,,---,0.00,VWS V14.00,2013-03-25 20:40:00,
2013-03-25 15:45:00,33.0,23.6,29.91,NNW,338,4.0,11.0,68,0.00,,---,0.00,VWS V14.00,2013-03-25 20:45:00,
2013-03-25 15:50:00,33.0,23.6,29.92,NW,315,4.0,10.0,68,0.00,,---,0.00,VWS V14.00,2013-03-25 20:50:00,
2013-03-25 15:55:00,32.9,23.5,29.92,NNW,338,4.0,9.0,68,0.00,,---,0.00,VWS V14.00,2013-03-25 20:55:00,
2013-03-25 16:00:00,32.9,23.9,29.92,NNW,338,3.0,9.0,69,0.00,,---,0.00,VWS V14.00,2013-03-25 21:00:00,
2013-03-25 16:05:00,32.9,23.9,29.92,North,0,3.0,8.0,69,0.00,,---,0.00,VWS V14.00,2013-03-25 21:05:00,
2013-03-25 16:10:00,32.9,23.5,29.92,NNW,338,5.0,11.0,68,0.00,,---,0.00,VWS V14.00,2013-03-25 21:10:00,
2013-03-25 16:15:00,33.0,23.6,29.92,NNW,338,4.0,9.0,68,0.00,,---,0.00,VWS V14.00,2013-03-25 21:15:00,
2013-03-25 16:20:00,33.0,23.6,29.92,NNW,338,3.0,11.0,68,0.00,,---,0.00,VWS V14.00,2013-03-25 21:20:00,
2013-03-25 16:25:00,33.0,24.0,29.93,NNW,338,3.0,11.0,69,0.00,,---,0.00,VWS V14.00,2013-03-25 21:25:00,
2013-03-25 16:30:00,33.0,23.6,29.93,NNW,338,4.0,11.0,68,0.00,,---,0.00,VWS V14.00,2013-03-25 21:30:00,
2013-03-25 16:35:00,32.9,23.5,29.93,NNW,338,4.0,7.0,68,0.00,,---,0.00,VWS V14.00,2013-03-25 21:35:00,
2013-03-25 16:40:00,33.0,23.6,29.93,NNW,338,3.0,12.0,68,0.00,,---,0.00,VWS V14.00,2013-03-25 21:40:00,
2013-03-25 16:45:00,33.2,23.8,29.93,NW,315,1.0,6.0,68,0.00,,---,0.00,VWS V14.00,2013-03-25 21:45:00,
2013-03-25 16:50:00,33.2,23.5,29.93,NNW,338,3.0,7.0,67,0.00,,---,0.00,VWS V14.00,2013-03-25 21:50:00,
2013-03-25 16:55:00,33.2,23.5,29.93,NNW,338,4.0,11.0,67,0.00,,---,0.00,VWS V14.00,2013-03-25 21:55:00,
2013-03-25 17:00:00,33.1,23.7,29.94,NNW,338,3.0,10.0,68,0.00,,---,0.00,VWS V14.00,2013-03-25 22:00:00,
2013-03-25 17:05:00,33.1,23.7,29.94,NW,315,2.0,6.0,68,0.00,,---,0.00,VWS V14.00,2013-03-25 22:05:00,
2013-03-25 17:10:00,33.1,24.0,29.94,NNW,338,1.0,4.0,69,0.00,,---,0.00,VWS V14.00,2013-03-25 22:10:00,
2013-03-25 17:15:00,33.2,24.1,29.94,NNW,338,4.0,10.0,69,0.00,,---,0.00,VWS V14.00,2013-03-25 22:15:00,
2013-03-25 17:20:00,33.2,24.1,29.94,NNW,338,1.0,5.0,69,0.00,,---,0.00,VWS V14.00,2013-03-25 22:20:00,
2013-03-25 17:25:00,33.2,24.1,29.94,NW,315,2.0,6.0,69,0.00,,---,0.00,VWS V14.00,2013-03-25 22:25:00,
2013-03-25 17:30:00,33.3,24.2,29.95,NW,315,3.0,10.0,69,0.00,,---,0.00,VWS V14.00,2013-03-25 22:30:00,
2013-03-25 17:35:00,33.3,24.6,29.95,NNW,338,2.0,8.0,70,0.00,,---,0.00,VWS V14.00,2013-03-25 22:35:00,
2013-03-25 17:40:00,33.3,24.6,29.95,NNW,338,1.0,9.0,70,0.00,,---,0.00,VWS V14.00,2013-03-25 22:40:00,
2013-03-25 17:45:00,33.3,24.6,29.95,NNW,338,2.0,6.0,70,0.00,,---,0.00,VWS V14.00,2013-03-25 22:45:00,
2013-03-25 17:50:00,33.3,24.6,29.95,NNW,338,1.0,4.0,70,0.00,,---,0.00,VWS V14.00,2013-03-25 22:50:00,
2013-03-25 17:55:00,33.3,24.9,29.95,NNW,338,2.0,7.0,71,0.00,,---,0.00,VWS V14.00,2013-03-25 22:55:00,
2013-03-25 18:00:00,33.3,24.6,29.95,NW,315,2.0,10.0,70,0.00,,---,0.00,VWS V14.00,2013-03-25 23:00:00,
2013-03-25 18:05:00,33.3,24.6,29.96,NNW,338,1.0,7.0,70,0.00,,---,0.00,VWS V14.00,2013-03-25 23:05:00,
2013-03-25 18:10:00,33.3,24.9,29.96,NNW,338,1.0,4.0,71,0.00,,---,0.00,VWS V14.00,2013-03-25 23:10:00,
2013-03-25 18:15:00,33.2,24.8,29.96,NW,315,1.0,6.0,71,0.00,,---,0.00,VWS V14.00,2013-03-25 23:15:00,
2013-03-25 18:20:00,33.2,25.2,29.96,NW,315,0.0,3.0,72,0.00,,---,0.00,VWS V14.00,2013-03-25 23:20:00,
2013-03-25 18:25:00,33.2,24.8,29.96,NW,315,1.0,4.0,71,0.00,,---,0.00,VWS V14.00,2013-03-25 23:25:00,
2013-03-25 18:30:00,33.2,24.8,29.97,NNW,338,2.0,6.0,71,0.00,,---,0.00,VWS V14.00,2013-03-25 23:30:00,
2013-03-25 18:35:00,33.2,24.8,29.97,NNW,338,1.0,4.0,71,0.00,,---,0.00,VWS V14.00,2013-03-25 23:35:00,
2013-03-25 18:40:00,33.2,25.2,29.97,NW,315,0.0,4.0,72,0.00,,---,0.00,VWS V14.00,2013-03-25 23:40:00,
2013-03-25 18:45:00,33.1,25.1,29.97,NW,315,0.0,3.0,72,0.00,,---,0.00,VWS V14.00,2013-03-25 23:45:00,
2013-03-25 18:50:00,33.1,25.1,29.97,NW,315,1.0,5.0,72,0.00,,---,0.00,VWS V14.00,2013-03-25 23:50:00,
2013-03-25 18:55:00,33.0,25.0,29.98,NW,315,0.0,2.0,72,0.00,,---,0.00,VWS V14.00,2013-03-25 23:55:00,
2013-03-25 19:00:00,33.1,25.1,29.98,NNW,338,2.0,6.0,72,0.00,,---,0.00,VWS V14.00,2013-03-26 00:00:00,
2013-03-25 19:05:00,33.1,25.1,29.98,NNW,338,0.0,4.0,72,0.00,,---,0.00,VWS V14.00,2013-03-26 00:05:00,
2013-03-25 19:10:00,33.1,25.1,29.98,NW,315,1.0,4.0,72,0.00,,---,0.00,VWS V14.00,2013-03-26 00:10:00,
2013-03-25 19:15:00,33.1,25.1,29.98,WNW,292,1.0,4.0,72,0.00,,---,0.00,VWS V14.00,2013-03-26 00:15:00,
2013-03-25 19:20:00,33.1,25.1,29.99,WNW,292,1.0,4.0,72,0.00,,---,0.00,VWS V14.00,2013-03-26 00:20:00,
2013-03-25 19:25:00,33.0,25.3,29.99,WNW,292,0.0,1.0,73,0.00,,---,0.00,VWS V14.00,2013-03-26 00:25:00,
2013-03-25 19:30:00,33.0,25.0,29.99,WNW,292,0.0,4.0,72,0.00,,---,0.00,VWS V14.00,2013-03-26 00:30:00,
2013-03-25 19:35:00,33.0,25.0,29.99,WNW,292,1.0,5.0,72,0.00,,---,0.00,VWS V14.00,2013-03-26 00:35:00,
2013-03-25 19:40:00,33.0,25.3,29.99,WNW,292,1.0,4.0,73,0.00,,---,0.00,VWS V14.00,2013-03-26 00:40:00,
2013-03-25 19:45:00,32.9,25.2,29.99,WNW,292,1.0,6.0,73,0.00,,---,0.00,VWS V14.00,2013-03-26 00:45:00,
2013-03-25 19:50:00,32.9,25.2,29.99,NW,315,1.0,5.0,73,0.00,,---,0.00,VWS V14.00,2013-03-26 00:50:00,
2013-03-25 19:55:00,32.9,25.2,29.99,NW,315,1.0,4.0,73,0.00,,---,0.00,VWS V14.00,2013-03-26 00:55:00,
2013-03-25 20:00:00,32.8,25.1,30.00,NW,315,1.0,4.0,73,0.00,,---,0.00,VWS V14.00,2013-03-26 01:00:00,
2013-03-25 20:05:00,32.8,25.4,30.00,WNW,292,1.0,5.0,74,0.00,,---,0.00,VWS V14.00,2013-03-26 01:05:00,
2013-03-25 20:10:00,32.8,25.1,29.99,WNW,292,2.0,7.0,73,0.00,,---,0.00,VWS V14.00,2013-03-26 01:10:00,
2013-03-25 20:15:00,32.9,25.2,30.00,NNW,338,0.0,6.0,73,0.00,,---,0.00,VWS V14.00,2013-03-26 01:15:00,
2013-03-25 20:20:00,32.8,25.1,30.00,WNW,292,1.0,5.0,73,0.00,,---,0.00,VWS V14.00,2013-03-26 01:20:00,
2013-03-25 20:25:00,32.8,25.1,30.00,WNW,292,1.0,4.0,73,0.00,,---,0.00,VWS V14.00,2013-03-26 01:25:00,
2013-03-25 20:30:00,32.8,25.4,30.00,WNW,292,1.0,3.0,74,0.00,,---,0.00,VWS V14.00,2013-03-26 01:30:00,
2013-03-25 20:35:00,32.7,25.0,30.00,NW,315,1.0,6.0,73,0.00,,---,0.00,VWS V14.00,2013-03-26 01:35:00,
2013-03-25 20:40:00,32.7,25.0,30.00,NNW,338,1.0,5.0,73,0.00,,---,0.00,VWS V14.00,2013-03-26 01:40:00,
2013-03-25 20:45:00,32.7,25.0,30.00,WNW,292,1.0,7.0,73,0.00,,---,0.00,VWS V14.00,2013-03-26 01:45:00,
2013-03-25 20:50:00,32.7,25.0,30.00,NW,315,0.0,2.0,73,0.00,,---,0.00,VWS V14.00,2013-03-26 01:50:00,
2013-03-25 20:55:00,32.7,25.0,30.00,NW,315,2.0,5.0,73,0.00,,---,0.00,VWS V14.00,2013-03-26 01:55:00,
2013-03-25 21:00:00,32.8,25.1,30.00,NW,315,1.0,6.0,73,0.00,,---,0.00,VWS V14.00,2013-03-26 02:00:00,
2013-03-25 21:05:00,32.7,25.0,30.00,NW,315,1.0,5.0,73,0.00,,---,0.00,VWS V14.00,2013-03-26 02:05:00,
2013-03-25 21:10:00,32.7,25.0,30.01,NNW,338,1.0,5.0,73,0.00,,---,0.00,VWS V14.00,2013-03-26 02:10:00,
2013-03-25 21:15:00,32.6,24.6,30.01,NW,315,1.0,6.0,72,0.00,,---,0.00,VWS V14.00,2013-03-26 02:15:00,
2013-03-25 21:20:00,32.6,24.6,30.01,NW,315,1.0,6.0,72,0.00,,---,0.00,VWS V14.00,2013-03-26 02:20:00,
2013-03-25 21:25:00,32.7,25.0,30.01,WNW,292,2.0,6.0,73,0.00,,---,0.00,VWS V14.00,2013-03-26 02:25:00,
2013-03-25 21:30:00,32.7,25.0,30.01,NW,315,1.0,7.0,73,0.00,,---,0.00,VWS V14.00,2013-03-26 02:30:00,
2013-03-25 21:35:00,32.6,24.9,30.01,WNW,292,1.0,6.0,73,0.00,,---,0.00,VWS V14.00,2013-03-26 02:35:00,
2013-03-25 21:40:00,32.6,24.9,30.01,NW,315,1.0,5.0,73,0.00,,---,0.00,VWS V14.00,2013-03-26 02:40:00,
2013-03-25 21:45:00,32.6,24.9,30.01,NW,315,0.0,3.0,73,0.00,,---,0.00,VWS V14.00,2013-03-26 02:45:00,
2013-03-25 21:50:00,32.5,24.8,30.01,NW,315,2.0,8.0,73,0.00,,---,0.00,VWS V14.00,2013-03-26 02:50:00,
2013-03-25 21:55:00,32.6,24.9,30.01,NW,315,1.0,6.0,73,0.00,,---,0.00,VWS V14.00,2013-03-26 02:55:00,
2013-03-25 22:00:00,32.5,24.8,30.01,NW,315,1.0,5.0,73,0.00,,---,0.00,VWS V14.00,2013-03-26 03:00:00,
2013-03-25 22:05:00,32.6,24.6,30.01,NW,315,2.0,5.0,72,0.00,,---,0.00,VWS V14.00,2013-03-26 03:05:00,
2013-03-25 22:10:00,32.6,24.6,30.01,NW,315,1.0,6.0,72,0.00,,---,0.00,VWS V14.00,2013-03-26 03:10:00,
2013-03-25 22:15:00,32.6,24.6,30.01,NW,315,2.0,8.0,72,0.00,,---,0.00,VWS V14.00,2013-03-26 03:15:00,
2013-03-25 22:20:00,32.5,24.5,30.01,WNW,292,3.0,7.0,72,0.00,,---,0.00,VWS V14.00,2013-03-26 03:20:00,
2013-03-25 22:25:00,32.6,24.6,30.01,WNW,292,1.0,7.0,72,0.00,,---,0.00,VWS V14.00,2013-03-26 03:25:00,
2013-03-25 22:30:00,32.5,24.5,30.01,NW,315,2.0,9.0,72,0.00,,---,0.00,VWS V14.00,2013-03-26 03:30:00,
2013-03-25 22:35:00,32.5,24.5,30.01,WNW,292,2.0,7.0,72,0.00,,---,0.00,VWS V14.00,2013-03-26 03:35:00,
2013-03-25 22:40:00,32.5,24.5,30.02,NW,315,0.0,3.0,72,0.00,,---,0.00,VWS V14.00,2013-03-26 03:40:00,
2013-03-25 22:45:00,32.5,24.2,30.02,NW,315,3.0,11.0,71,0.00,,---,0.00,VWS V14.00,2013-03-26 03:45:00,
2013-03-25 22:50:00,32.5,24.2,30.02,WNW,292,2.0,4.0,71,0.00,,---,0.00,VWS V14.00,2013-03-26 03:50:00,
2013-03-25 22:55:00,32.5,24.2,30.02,NW,315,1.0,7.0,71,0.00,,---,0.00,VWS V14.00,2013-03-26 03:55:00,
2013-03-25 23:00:00,32.6,23.9,30.02,NW,315,2.0,6.0,70,0.00,,---,0.00,VWS V14.00,2013-03-26 04:00:00,
2013-03-25 23:05:00,32.6,23.9,30.02,NW,315,2.0,8.0,70,0.00,,---,0.00,VWS V14.00,2013-03-26 04:05:00,
2013-03-25 23:10:00,32.5,23.8,30.02,NW,315,2.0,9.0,70,0.00,,---,0.00,VWS V14.00,2013-03-26 04:10:00,
2013-03-25 23:15:00,32.5,23.8,30.02,NNW,338,1.0,4.0,70,0.00,,---,0.00,VWS V14.00,2013-03-26 04:15:00,
2013-03-25 23:20:00,32.5,23.8,30.02,NW,315,1.0,5.0,70,0.00,,---,0.00,VWS V14.00,2013-03-26 04:20:00,
2013-03-25 23:25:00,32.5,23.5,30.02,NNW,338,3.0,7.0,69,0.00,,---,0.00,VWS V14.00,2013-03-26 04:25:00,
2013-03-25 23:30:00,32.5,23.5,30.02,NNW,338,2.0,7.0,69,0.00,,---,0.00,VWS V14.00,2013-03-26 04:30:00,
2013-03-25 23:35:00,32.5,23.5,30.02,NNW,338,3.0,10.0,69,0.00,,---,0.00,VWS V14.00,2013-03-26 04:35:00,
2013-03-25 23:40:00,32.5,23.1,30.02,NNW,338,4.0,13.0,68,0.00,,---,0.00,VWS V14.00,2013-03-26 04:40:00,
2013-03-25 23:45:00,32.5,23.1,30.02,NW,315,5.0,12.0,68,0.00,,---,0.00,VWS V14.00,2013-03-26 04:45:00,
2013-03-25 23:50:00,32.5,23.1,30.02,NNW,338,5.0,9.0,68,0.00,,---,0.00,VWS V14.00,2013-03-26 04:50:00,
2013-03-25 23:55:00,32.5,23.1,30.02,NNW,338,4.0,10.0,68,0.00,,---,0.00,VWS V14.00,2013-03-26 04:55:00,